Weather History for Beirut, Lebanon

Change the Weather History Date:

Thursday, February 14, 2013

  Actual Average Record
Temperature  
Mean Temperature 64 °F -  
Max Temperature 75 °F 63 °F 75 °F (2013)
Min Temperature 53 °F 52 °F 46 °F (2004)
Degree Days  
Heating Degree Days 1    
Growing Degree Days 14 (Base 50)    
Moisture  
Dew Point 47 °F    
Average Humidity 55    
Maximum Humidity 74    
Minimum Humidity 27    
Precipitation  
Precipitation 0.00 in 0.16 in - ()
Sea Level Pressure  
Sea Level Pressure 29.94 in    
Wind  
Wind Speed 3 mph ()    
Max Wind Speed 14 mph    
Max Gust Speed 21 mph    
Visibility 5.5 miles    
Events      
Averages and records for this station are not official NWS values.
T = Trace of Precipitation, MM = Missing Value Source: Averaged Metar Reports

Daily Weather History Graph

Daily Weather History Graph

Search for Another Location

Airport:

Trip Planner

Search our weather history database for the weather conditions in past years. The results will help you decide how hot, cold, wet, or windy it might be!

Date:

Astronomy

Feb. 14, 2013 Rise Set
Actual Time 6:23 AM EET 5:21 PM EET
Civil Twilight 5:58 AM EET 5:46 PM EET
Nautical Twilight 5:28 AM EET 6:16 PM EET
Astronomical Twilight 4:59 AM EET 6:45 PM EET
Moon 8:29 AM EET (2/14) 9:46 PM EET (2/14)
Length of Visible Light 11h 48m
Length of Day
10h 57m
Waxing Crescent, 19% of the Moon is Illuminated
Feb 14
Waxing Crescent
Feb 17
First Quarter
Feb 25
Full
Mar 4
Last Quarter
Mar 11
New

Hourly Weather History & Observations

Time (EET) Temp. Dew Point Humidity Pressure Visibility Wind Dir Wind Speed Gust Speed Precip Events Conditions
12:00 AM 55.4 °F 46.4 °F 72% 30.06 in 6.2 mi Variable 1.2 mph - N/A   Partly Cloudy
1:00 AM 57.2 °F 46.4 °F 67% 30.04 in 6.2 mi ESE 3.5 mph - N/A   Partly Cloudy
2:00 AM 54 °F 48 °F 74% 30.00 in 6 mi NNE 1.2 mph - -   Clear
2:00 AM 55.4 °F 44.6 °F 67% 30.04 in 6.2 mi Variable 2.3 mph - N/A   Partly Cloudy
3:00 AM 55.4 °F 42.8 °F 63% 30.01 in - East 3.5 mph - N/A   Clear
4:00 AM 57.2 °F 42.8 °F 59% 30.01 in - Variable 2.3 mph - N/A   Clear
5:00 AM 55.4 °F 42.8 °F 63% 29.98 in - ESE 2.3 mph - N/A   Clear
6:00 AM 59.0 °F 41.0 °F 51% 29.98 in - East 5.8 mph - N/A   Clear
7:00 AM 62.6 °F 37.4 °F 39% 29.98 in - NE 3.5 mph - N/A   Clear
8:00 AM 67 °F 41 °F 27% 29.92 in 6 mi East 2.3 mph - -   Scattered Clouds
8:00 AM 60.8 °F 41.0 °F 48% 29.95 in 5.0 mi East 3.5 mph - N/A   Scattered Clouds
9:00 AM 66.2 °F 53.6 °F 64% 29.95 in 6.2 mi West 6.9 mph - N/A   Mostly Cloudy
10:00 AM 66.2 °F 57.2 °F 73% 29.95 in 6.2 mi South 3.5 mph - N/A   Mostly Cloudy
11:00 AM 75.2 °F 42.8 °F 31% 29.92 in 6.2 mi East 4.6 mph 20.7 mph N/A   Mostly Cloudy
12:00 PM 66.2 °F 57.2 °F 73% 29.92 in 6.2 mi NW 13.8 mph - N/A   Mostly Cloudy
1:00 PM 68.0 °F 55.4 °F 64% 29.92 in 6.2 mi Variable 2.3 mph - N/A   Scattered Clouds
2:00 PM 71 °F 46 °F 30% 29.86 in 5 mi NNE 3.5 mph - -   Overcast
2:00 PM 69.8 °F 48.2 °F 46% 29.89 in 5.0 mi Variable 4.6 mph - N/A   Mostly Cloudy
3:00 PM 69.8 °F 42.8 °F 38% 29.89 in 5.0 mi North 6.9 mph - N/A   Mostly Cloudy
4:00 PM 69.8 °F 42.8 °F 38% 29.89 in 5.0 mi NNW 4.6 mph - N/A   Mostly Cloudy
5:00 PM 66.2 °F 51.8 °F 60% 29.89 in 5.0 mi Calm Calm - N/A   Mostly Cloudy
6:00 PM 64.4 °F 53.6 °F 68% 29.89 in 5.0 mi Variable 2.3 mph - N/A   Mostly Cloudy
7:00 PM 64.4 °F 50.0 °F 59% 29.92 in 5.0 mi Variable 2.3 mph - N/A   Scattered Clouds
8:00 PM 64 °F 49 °F 48% 29.89 in 5 mi ENE 3.5 mph - -   Overcast
8:00 PM 64.4 °F 46.4 °F 52% 29.92 in 5.0 mi East 5.8 mph - N/A   Mostly Cloudy
9:00 PM 64.4 °F 44.6 °F 49% 29.92 in 5.0 mi Variable 2.3 mph - N/A   Mostly Cloudy
10:00 PM 60.8 °F 46.4 °F 59% 29.92 in 5.0 mi Variable 1.2 mph - N/A   Mostly Cloudy
11:00 PM 60.8 °F 46.4 °F 59% 29.92 in 5.0 mi East 3.5 mph - N/A   Partly Cloudy